Temp
-5 -5 -5 -5 -5 -5 -5 -5 -5 -5 -5 -5 -5 -5 -5 -5 -5 -5 -4 -4 -4 -4 -4 -4 -4 -4 -4 -3 -3 -3 -3 -3 -3 -3 -4 -4 -5 -5 -6 -6 -7 -7 -7 -6 -6 -6 -6
-5 -5 -5 -5 -5 -5 -5 -5 -5 -5 -5 -5 -5 -5 -5 -5 -5 -4 -4 -4 -4 -4 -4 -4 -4 -4 -4 -3 -4 -4 -4 -3 -3 -3 -3 -4 -4 -6 -6 -6 -6 -7 -7 -6 -6 -6 -6
-5 -5 -5 -5 -5 -5 -5 -5 -5 -5 -5 -5 -5 -5 -5 -5 -5 -5 -4 -4 -4 -4 -4 -4 -4 -4 -4 -3 -4 -4 -3 -3 -4 -4 -4 -4 -5 -5 -5 -5 -6 -6 -6 -6 -5 -6 -6
-5 -5 -5 -5 -5 -5 -5 -5 -5 -5 -5 -5 -5 -5 -5 -5 -5 -4 -5 -4 -4 -4 -4 -4 -4 -4 -5 -3 -4 -4 -3 -4 -4 -4 -4 -4 -4 -4 -5 -4 -5 -6 -5 -6 -6 -6 -6
-5 -5 -5 -5 -5 -5 -5 -5 -5 -5 -5 -5 -5 -5 -5 -5 -5 -5 -5 -5 -4 -4 -4 -4 -4 -4 -5 -4 -3 -4 -3 -4 -4 -4 -3 -3 -4 -3 -4 -4 -5 -5 -5 -6 -6 -6 -6
-6 -6 -6 -5 -5 -5 -5 -5 -5 -5 -5 -5 -5 -5 -4 -5 -4 -5 -5 -5 -5 -5 -4 -4 -4 -4 -4 -4 -4 -4 -4 -3 -4 -3 -3 -3 -4 -4 -4 -3 -3 -4 -5 -6 -7 -6 -6
-6 -6 -6 -6 -6 -6 -6 -6 -6 -5 -5 -5 -4 -5 -5 -4 -4 -4 -4 -4 -5 -5 -5 -4 -4 -4 -4 -5 -4 -4 -4 -3 -3 -4 -4 -4 -3 -4 -5 -5 -5 -5 -6 -7 -8 -7 -6
-7 -7 -7 -7 -7 -7 -7 -6 -6 -6 -6 -6 -5 -5 -5 -5 -4 -4 -4 -5 -4 -4 -5 -5 -5 -5 -4 -4 -4 -4 -4 -4 -4 -4 -4 -3 -4 -5 -5 -5 -5 -5 -6 -6 -7 -7 -6
-8 -8 -8 -8 -8 -8 -7 -7 -7 -7 -7 -7 -6 -6 -6 -5 -5 -4 -4 -4 -4 -4 -4 -5 -4 -5 -5 -4 -4 -5 -4 -4 -4 -4 -4 -4 -5 -4 -4 -5 -4 -4 -5 -6 -7 -7 -6
-8 -8 -8 -8 -8 -8 -8 -8 -8 -8 -8 -8 -7 -6 -6 -7 -6 -5 -5 -4 -4 -4 -4 -4 -5 -4 -5 -5 -4 -5 -4 -4 -3 -4 -4 -3 -4 -4 -4 -4 -4 -4 -5 -6 -7 -7 -7
-8 -8 -8 -8 -8 -8 -8 -7 -7 -7 -7 -7 -7 -7 -7 -7 -8 -7 -6 -5 -5 -4 -5 -4 -4 -4 -4 -5 -5 -5 -5 -4 -4 -4 -4 -3 -4 -4 -4 -5 -5 -5 -6 -6 -7 -8 -8
-8 -8 -8 -8 -8 -7 -7 -7 -7 -7 -7 -8 -7 -7 -8 -8 -8 -8 -8 -7 -6 -6 -4 -5 -4 -4 -4 -4 -5 -5 -4 -4 -5 -4 -4 -4 -4 -3 -4 -4 -4 -5 -5 -6 -7 -7 -5
-8 -8 -8 -7 -7 -7 -8 -9 -9 -9 -8 -8 -8 -7 -7 -7 -8 -8 -8 -8 -8 -7 -6 -6 -5 -5 -5 -5 -5 -5 -4 -4 -4 -4 -3 -4 -3 -3 -3 -4 -4 -4 -4 -5 -6 -5 -2
-8 -8 -9 -9 -9 -10 -10 -10 -10 -9 -9 -9 -9 -8 -8 -7 -8 -8 -9 -8 -8 -7 -7 -6 -6 -6 -6 -6 -5 -5 -5 -5 -5 -5 -4 -4 -4 -3 -3 -3 -4 -4 -4 -4 -3 -3 -3
-10 -10 -11 -11 -11 -12 -12 -13 -13 -13 -12 -12 -12 -11 -9 -9 -8 -8 -9 -9 -9 -8 -7 -7 -7 -8 -8 -7 -6 -6 -6 -6 -6 -5 -5 -4 -4 -4 -4 -4 -5 -4 -3 -5 -5 -4 -4
-12 -12 -13 -13 -15 -16 -17 -18 -19 -20 -20 -20 -19 -18 -15 -13 -11 -10 -10 -10 -10 -9 -8 -8 -8 -8 -8 -8 -8 -7 -7 -6 -6 -5 -5 -5 -4 -4 -5 -5 -5 -4 -5 -5 -5 -4 -4
-13 -14 -15 -16 -18 -18 -19 -19 -20 -20 -21 -21 -22 -23 -22 -21 -19 -16 -14 -14 -13 -10 -9 -9 -9 -9 -8 -8 -9 -8 -7 -7 -6 -6 -5 -5 -5 -5 -5 -4 -4 -4 -3 -3 -3 -4 -3
-15 -15 -17 -18 -18 -18 -19 -19 -20 -20 -21 -22 -23 -23 -23 -23 -23 -23 -21 -19 -18 -15 -11 -10 -9 -9 -9 -9 -9 -9 -8 -7 -7 -7 -6 -6 -6 -5 -5 -5 -5 -5 -5 -5 -5 -4 -3
-16 -18 -18 -18 -18 -19 -19 -19 -20 -21 -21 -22 -23 -24 -24 -24 -25 -25 -24 -23 -21 -19 -16 -13 -11 -10 -9 -10 -10 -10 -10 -8 -8 -8 -7 -7 -6 -6 -5 -5 -5 -4 -5 -4 -4 -4 -3
-18 -18 -18 -18 -18 -18 -19 -20 -20 -21 -22 -22 -24 -24 -24 -25 -25 -26 -26 -25 -24 -22 -19 -17 -15 -13 -12 -11 -11 -11 -11 -10 -9 -9 -8 -7 -7 -7 -6 -6 -6 -5 -5 -4 -4 -3 -2
-18 -18 -18 -18 -19 -19 -19 -19 -20 -21 -22 -23 -24 -24 -25 -26 -26 -26 -26 -26 -26 -25 -22 -20 -19 -18 -16 -14 -12 -12 -12 -11 -11 -9 -9 -9 -8 -7 -7 -7 -6 -5 -5 -5 -4 -4 -3
-19 -18 -18 -18 -19 -20 -19 -19 -20 -21 -22 -23 -24 -24 -25 -26 -26 -27 -27 -26 -26 -26 -26 -23 -23 -22 -20 -18 -16 -14 -13 -13 -12 -11 -10 -9 -9 -8 -7 -7 -6 -6 -5 -5 -5 -4 -3
-19 -18 -18 -18 -18 -20 -19 -19 -20 -21 -22 -23 -24 -24 -25 -26 -27 -27 -27 -26 -26 -26 -27 -26 -25 -24 -23 -22 -20 -16 -15 -14 -13 -12 -11 -10 -9 -9 -8 -7 -7 -6 -5 -5 -5 -5 -4
-19 -19 -18 -18 -18 -19 -19 -20 -20 -21 -22 -22 -23 -24 -25 -26 -26 -26 -26 -26 -26 -26 -26 -26 -26 -25 -24 -24 -23 -20 -17 -16 -14 -13 -12 -11 -10 -10 -9 -8 -7 -5 -5 -6 -6 -5 -5
-19 -19 -18 -18 -18 -19 -19 -19 -20 -20 -21 -22 -22 -23 -24 -25 -26 -26 -26 -26 -26 -26 -26 -26 -26 -26 -25 -25 -24 -23 -21 -18 -16 -14 -13 -12 -12 -11 -10 -8 -7 -6 -6 -6 -6 -5 -5
-18 -18 -18 -18 -18 -19 -19 -19 -20 -20 -20 -21 -22 -22 -23 -24 -24 -25 -26 -26 -26 -26 -26 -26 -26 -26 -26 -26 -25 -25 -23 -21 -18 -17 -15 -14 -12 -11 -10 -8 -7 -6 -7 -7 -6 -5 -5
-18 -18 -18 -18 -18 -18 -19 -19 -19 -20 -20 -21 -21 -22 -22 -23 -24 -24 -25 -25 -25 -25 -26 -26 -26 -25 -26 -26 -25 -25 -24 -23 -21 -19 -17 -16 -14 -11 -11 -9 -7 -7 -7 -7 -6 -5 -6
-18 -18 -18 -17 -17 -18 -19 -19 -19 -19 -20 -20 -20 -21 -22 -23 -23 -23 -24 -24 -25 -25 -25 -25 -25 -25 -25 -25 -25 -25 -25 -24 -22 -21 -19 -17 -16 -13 -11 -9 -7 -7 -8 -7 -7 -6 -6
-18 -18 -17 -17 -17 -18 -18 -19 -18 -19 -20 -20 -20 -21 -21 -22 -23 -23 -23 -23 -24 -24 -24 -24 -24 -25 -25 -24 -24 -24 -24 -23 -22 -20 -19 -17 -15 -15 -13 -9 -8 -8 -8 -8 -7 -7 -7
Height
5883 5881 5880 5878 5876 5875 5873 5872 5870 5869 5867 5866 5865 5863 5863 5862 5861 5860 5859 5860 5860 5860 5860 5860 5859 5858 5857 5858 5860 5859 5860 5861 5863 5866 5869 5871 5873 5875 5878 5880 5883 5886 5889 5889 5890 5890 5890
5880 5878 5876 5874 5872 5870 5868 5866 5865 5863 5862 5861 5859 5858 5857 5856 5856 5854 5855 5856 5855 5854 5855 5855 5855 5855 5853 5855 5858 5856 5857 5858 5859 5861 5864 5867 5870 5870 5872 5876 5879 5881 5885 5889 5890 5890 5890
5876 5874 5872 5870 5868 5866 5864 5861 5859 5858 5856 5854 5853 5852 5851 5851 5850 5849 5849 5850 5849 5849 5849 5850 5851 5851 5850 5851 5853 5852 5853 5854 5855 5857 5860 5862 5864 5867 5869 5871 5874 5876 5882 5886 5890 5889 5889
5871 5869 5867 5864 5862 5860 5858 5856 5854 5851 5850 5848 5846 5845 5844 5844 5843 5843 5843 5843 5843 5844 5844 5845 5845 5846 5845 5846 5849 5849 5849 5851 5851 5852 5855 5857 5858 5860 5864 5867 5870 5872 5876 5883 5886 5888 5888
5866 5863 5860 5858 5855 5853 5851 5848 5846 5843 5842 5840 5839 5838 5837 5837 5837 5836 5836 5836 5836 5837 5837 5839 5840 5841 5840 5841 5844 5845 5845 5846 5846 5848 5849 5852 5855 5857 5860 5864 5866 5868 5873 5878 5881 5885 5887
5860 5856 5853 5850 5847 5844 5842 5839 5836 5834 5832 5830 5830 5829 5827 5827 5828 5828 5828 5828 5828 5830 5831 5831 5833 5835 5836 5836 5838 5840 5839 5842 5843 5843 5846 5849 5850 5854 5857 5859 5862 5865 5870 5874 5877 5882 5885
5851 5847 5844 5840 5837 5834 5831 5829 5826 5823 5820 5819 5819 5819 5817 5816 5816 5818 5818 5819 5821 5823 5824 5824 5826 5826 5829 5829 5831 5834 5835 5835 5838 5840 5842 5843 5846 5850 5853 5856 5860 5862 5865 5869 5873 5875 5880
5843 5839 5836 5832 5828 5825 5821 5818 5814 5811 5808 5806 5806 5806 5806 5803 5803 5804 5806 5806 5808 5811 5816 5816 5817 5820 5820 5821 5823 5826 5829 5831 5834 5837 5836 5840 5844 5844 5845 5848 5853 5856 5860 5864 5868 5871 5874
5836 5832 5828 5824 5819 5814 5810 5806 5803 5799 5794 5791 5792 5792 5792 5790 5788 5789 5791 5793 5795 5797 5801 5808 5808 5812 5809 5813 5815 5819 5820 5823 5827 5829 5832 5834 5838 5837 5839 5842 5845 5851 5856 5860 5865 5865 5867
5828 5824 5819 5814 5809 5805 5800 5796 5792 5787 5782 5778 5777 5776 5775 5776 5776 5773 5774 5777 5780 5784 5786 5794 5796 5797 5802 5801 5807 5809 5812 5816 5818 5824 5825 5827 5830 5833 5835 5839 5842 5846 5851 5853 5857 5858 5860
5821 5816 5810 5805 5800 5794 5788 5783 5778 5772 5766 5763 5760 5759 5758 5758 5760 5758 5758 5761 5764 5768 5770 5774 5782 5785 5789 5792 5797 5802 5804 5805 5810 5816 5817 5825 5826 5829 5830 5836 5837 5844 5843 5847 5850 5852 5853
5812 5806 5800 5794 5788 5781 5773 5766 5760 5755 5749 5744 5741 5740 5739 5740 5741 5742 5742 5744 5748 5751 5752 5757 5763 5771 5775 5780 5784 5790 5792 5797 5801 5804 5807 5811 5816 5817 5826 5826 5830 5834 5836 5837 5839 5844 5839
5801 5794 5787 5779 5771 5763 5754 5746 5739 5733 5728 5723 5719 5718 5718 5719 5721 5722 5722 5725 5728 5729 5737 5739 5746 5752 5761 5766 5771 5776 5781 5786 5792 5795 5799 5804 5807 5813 5816 5820 5823 5826 5825 5829 5833 5832 5835
5789 5780 5770 5761 5751 5741 5731 5721 5711 5704 5700 5695 5691 5691 5691 5693 5696 5699 5701 5704 5707 5709 5716 5721 5728 5734 5743 5751 5757 5763 5767 5773 5779 5785 5789 5796 5799 5806 5812 5815 5819 5819 5822 5825 5826 5830 5833
5774 5763 5753 5742 5731 5720 5708 5696 5685 5675 5668 5663 5657 5656 5659 5662 5665 5670 5676 5679 5681 5690 5696 5704 5711 5716 5723 5733 5741 5747 5754 5760 5767 5773 5779 5783 5787 5795 5801 5807 5808 5811 5815 5824 5821 5823 5826
5760 5750 5738 5726 5714 5703 5692 5680 5668 5658 5648 5638 5630 5626 5624 5627 5631 5637 5643 5649 5655 5666 5676 5681 5689 5694 5704 5714 5722 5730 5737 5743 5750 5758 5765 5772 5777 5784 5791 5794 5794 5802 5809 5809 5811 5816 5820
5748 5738 5726 5716 5706 5696 5685 5673 5662 5651 5639 5627 5616 5608 5603 5600 5602 5604 5610 5616 5625 5637 5648 5657 5665 5674 5683 5693 5702 5711 5719 5728 5733 5743 5752 5759 5766 5774 5778 5781 5785 5795 5797 5801 5806 5809 5816
5741 5730 5719 5710 5701 5690 5678 5666 5655 5644 5632 5619 5608 5601 5593 5587 5587 5585 5586 5592 5599 5606 5616 5627 5639 5650 5661 5671 5682 5692 5702 5709 5717 5728 5736 5744 5752 5762 5769 5774 5781 5785 5788 5791 5794 5807 5813
5734 5724 5715 5705 5695 5683 5672 5660 5648 5636 5624 5613 5603 5594 5586 5581 5576 5573 5573 5574 5579 5585 5591 5600 5610 5623 5637 5650 5662 5672 5683 5692 5700 5710 5720 5728 5735 5748 5756 5762 5767 5770 5775 5780 5791 5793 5797
5728 5720 5711 5700 5690 5678 5666 5653 5641 5628 5616 5605 5594 5586 5580 5573 5569 5566 5566 5564 5565 5567 5573 5579 5587 5597 5609 5623 5637 5650 5662 5673 5683 5692 5702 5711 5721 5733 5744 5752 5755 5761 5765 5769 5780 5780 5797
5724 5716 5706 5695 5683 5671 5660 5647 5635 5623 5610 5599 5588 5580 5573 5567 5563 5559 5559 5559 5557 5555 5559 5564 5570 5577 5586 5599 5613 5626 5639 5652 5664 5673 5684 5695 5704 5716 5727 5734 5742 5749 5755 5759 5767 5778 5778
5720 5711 5702 5692 5680 5666 5654 5642 5632 5619 5607 5595 5583 5575 5570 5563 5557 5554 5553 5553 5551 5550 5551 5552 5557 5562 5567 5577 5590 5605 5617 5632 5643 5656 5665 5675 5687 5698 5709 5719 5728 5736 5745 5750 5756 5765 5770
5716 5707 5698 5687 5676 5663 5649 5637 5625 5615 5604 5593 5583 5573 5565 5558 5553 5550 5548 5547 5546 5546 5546 5546 5546 5551 5556 5562 5569 5581 5597 5611 5625 5637 5648 5658 5669 5679 5692 5702 5712 5722 5736 5743 5748 5754 5763
5712 5704 5695 5684 5674 5660 5647 5634 5622 5612 5601 5591 5581 5571 5562 5555 5550 5546 5544 5543 5543 5543 5543 5542 5543 5544 5549 5553 5558 5566 5578 5592 5605 5620 5631 5642 5651 5662 5674 5686 5692 5715 5721 5726 5733 5742 5749
5708 5700 5691 5681 5671 5658 5645 5634 5621 5610 5600 5590 5582 5572 5563 5555 5549 5546 5544 5542 5541 5540 5540 5540 5539 5540 5542 5547 5551 5558 5566 5576 5590 5602 5614 5625 5633 5645 5655 5668 5682 5696 5707 5714 5722 5733 5739
5704 5696 5688 5680 5669 5657 5645 5633 5621 5610 5600 5590 5582 5574 5565 5557 5552 5546 5543 5541 5540 5538 5538 5537 5536 5536 5538 5542 5545 5550 5557 5565 5576 5586 5596 5608 5617 5627 5640 5652 5660 5685 5693 5702 5711 5721 5732
5701 5693 5685 5677 5667 5655 5643 5632 5620 5610 5600 5591 5583 5575 5567 5560 5553 5548 5544 5541 5538 5538 5536 5535 5535 5535 5537 5538 5542 5546 5551 5554 5563 5571 5583 5590 5600 5611 5623 5634 5643 5662 5677 5686 5698 5714 5720
5698 5690 5683 5675 5665 5653 5642 5628 5619 5609 5600 5591 5584 5576 5569 5561 5555 5549 5544 5541 5539 5537 5535 5535 5535 5535 5536 5537 5539 5541 5544 5546 5552 5559 5566 5576 5585 5595 5607 5617 5627 5651 5662 5674 5686 5697 5707
5694 5687 5680 5673 5663 5653 5641 5628 5618 5608 5600 5591 5584 5577 5569 5562 5556 5551 5546 5543 5539 5537 5535 5535 5535 5534 5534 5535 5537 5539 5542 5543 5547 5554 5557 5566 5571 5579 5591 5604 5619 5634 5646 5660 5669 5682 5695
Wind_Speed
19 21 22 22 23 24 24 24 25 25 25 25 25 24 23 23 23 23 23 21 20 21 20 18 17 18 19 15 7 11 12 12 18 17 14 11 12 20 18 19 21 21 23 19 17 15 11
19 20 20 20 22 23 25 26 28 28 27 27 26 25 24 22 22 24 24 21 22 22 22 21 20 19 21 18 7 12 9 12 13 19 18 13 14 22 27 23 21 23 26 21 17 15 11
23 24 25 25 26 26 26 26 26 27 28 28 27 26 24 23 23 23 23 23 23 23 22 22 22 20 23 18 10 16 12 11 12 14 19 20 19 22 25 26 25 24 24 24 23 14 11
25 26 27 28 29 30 30 31 31 31 29 28 29 30 31 29 28 26 24 24 23 23 23 23 22 23 24 19 14 18 14 10 13 13 17 22 23 23 26 26 26 27 23 24 25 8 9
29 29 30 30 31 32 33 33 35 35 35 35 34 33 33 34 33 32 28 26 24 24 24 23 23 24 26 24 16 18 20 17 16 13 14 17 22 22 22 25 27 27 23 24 25 17 10
33 34 35 35 36 37 38 37 38 38 39 39 39 39 39 39 35 33 33 31 28 26 25 25 23 25 27 26 23 20 25 20 18 19 16 13 14 19 21 19 16 21 24 26 26 22 17
35 36 37 38 40 41 41 41 42 43 44 43 42 43 43 43 42 39 38 37 35 32 28 28 27 28 26 27 28 25 26 25 20 17 14 14 13 7 15 21 19 18 26 31 29 28 23
37 37 38 39 40 42 43 45 46 46 46 48 47 46 45 48 48 46 44 44 42 40 33 32 31 28 32 31 31 28 29 30 23 18 20 17 5 12 18 22 23 24 24 31 35 31 25
35 36 37 38 40 41 42 42 43 45 48 51 51 50 49 50 51 51 50 48 46 46 44 35 35 32 36 37 35 32 32 31 28 26 22 19 17 19 20 22 26 25 23 27 31 33 31
38 40 41 42 41 41 43 45 48 50 50 50 51 52 52 49 51 54 54 53 52 50 50 45 41 40 39 40 38 37 36 34 32 26 27 25 22 21 20 16 20 25 22 28 31 36 36
43 44 43 43 46 47 50 52 55 56 56 57 56 54 52 52 50 51 55 55 55 55 53 52 48 46 43 44 41 38 37 39 35 30 31 21 21 20 20 14 17 18 28 28 31 35 38
48 50 49 52 54 57 60 62 63 62 58 57 59 60 60 56 53 53 53 54 56 56 58 55 51 48 45 43 45 42 43 41 38 36 35 34 30 31 22 25 22 24 32 35 36 38 42
53 53 54 57 60 64 68 67 66 66 65 67 65 61 61 60 62 59 59 58 58 59 59 59 57 55 49 45 43 41 46 45 43 41 40 36 34 29 31 29 29 28 34 39 38 40 30
56 58 61 64 67 71 74 75 76 77 76 73 71 71 70 67 63 65 64 63 63 63 61 62 60 58 53 52 50 42 44 47 46 45 44 41 41 33 27 27 27 29 31 32 33 28 34
58 63 67 72 75 77 78 78 77 77 77 77 76 75 74 72 71 71 67 66 67 68 64 62 62 60 58 54 53 51 50 46 45 44 46 47 47 41 39 31 33 33 30 26 36 36 35
63 67 72 74 71 66 59 56 56 55 55 55 55 54 58 63 68 69 69 66 67 69 69 69 66 66 62 58 56 57 53 54 52 49 48 47 48 46 42 42 43 38 32 36 36 36 34
66 69 68 62 57 55 56 56 56 55 54 54 48 45 40 41 44 54 60 59 60 66 70 73 74 71 69 64 61 60 62 60 56 54 54 51 51 49 48 51 48 41 41 39 39 38 33
65 64 53 51 54 56 56 54 53 54 52 51 44 38 35 32 32 33 39 46 48 56 67 72 76 76 74 72 67 63 64 66 65 60 57 58 54 51 52 49 45 44 44 43 44 37 32
60 48 47 53 55 53 55 55 53 53 52 49 40 39 38 34 27 25 27 30 35 43 57 68 76 78 78 75 70 69 67 67 68 65 63 61 62 57 55 53 51 52 51 49 43 44 44
49 45 52 53 57 56 57 54 53 54 52 51 43 35 34 33 28 21 17 19 22 31 46 59 68 75 77 78 75 72 71 70 71 70 67 67 65 61 60 59 59 57 56 54 49 53 39
41 45 52 54 61 59 61 56 55 53 51 49 44 30 29 28 28 23 17 15 15 17 32 45 56 63 73 76 78 76 76 75 74 74 73 71 70 68 65 64 63 61 60 58 56 51 52
38 44 49 55 60 59 58 57 55 52 50 46 45 34 29 26 27 21 17 14 12 10 10 26 38 46 57 68 78 77 79 79 80 79 78 77 74 72 70 68 66 65 63 62 59 54 52
37 40 47 56 63 59 53 56 53 49 48 48 45 37 33 25 23 17 15 13 12 10 11 8 17 41 35 41 60 78 80 81 84 83 82 81 79 76 74 72 70 70 64 61 58 56 53
38 38 44 51 60 63 53 53 56 50 45 46 47 41 33 26 22 17 13 13 12 11 9 13 11 19 40 43 44 57 74 81 84 86 86 84 83 81 78 75 76 69 68 67 65 61 58
41 34 40 48 58 56 53 53 54 52 47 43 42 44 37 27 24 17 13 11 11 11 10 10 11 10 20 28 44 50 46 71 80 85 89 88 87 85 83 81 78 75 71 70 67 63 61
42 33 36 47 53 52 49 52 48 49 48 46 40 37 38 31 23 15 12 11 11 11 11 11 11 11 12 23 23 30 45 53 63 79 86 92 91 91 89 85 84 75 72 72 69 66 61
41 34 33 43 50 51 51 51 45 41 45 44 41 35 31 31 26 20 14 12 11 9 8 9 4 3 7 12 19 24 25 31 49 61 74 86 95 96 92 91 90 84 78 75 72 68 63
44 36 31 39 48 51 54 53 47 39 38 41 39 36 30 26 24 22 20 15 12 10 8 7 2 2 4 6 9 12 15 21 31 40 57 73 87 97 99 97 94 86 82 80 75 70 66
43 34 29 37 46 50 50 51 47 42 38 41 36 35 33 33 27 22 15 16 10 6 5 7 7 5 3 3 7 9 12 13 15 20 35 57 74 86 99 102 96 92 87 81 78 73 69
Wind_Direction
306 301 296 293 291 290 289 288 288 290 291 291 287 284 283 283 283 282 278 275 271 267 268 267 266 268 267 266 270 259 251 249 228 225 220 217 217 213 203 205 202 203 192 189 188 176 159
317 315 311 307 304 301 297 293 289 285 283 283 284 282 282 284 284 280 277 275 272 269 264 264 260 262 266 261 255 265 248 245 241 227 219 216 207 206 208 206 207 216 206 192 185 171 167
306 305 303 301 301 302 302 302 301 296 289 285 283 278 275 280 280 280 278 271 267 266 265 259 255 253 262 259 249 249 241 248 245 232 222 210 217 223 215 210 206 218 209 201 185 165 160
305 302 300 298 297 296 295 294 294 293 292 290 285 279 274 278 279 274 273 272 266 263 260 259 254 247 253 257 239 239 251 238 245 239 227 223 217 216 215 218 213 217 214 193 193 181 171
303 301 299 296 294 293 292 291 290 289 287 285 284 283 281 278 277 275 270 268 269 267 258 254 253 248 248 254 230 239 243 231 238 239 235 236 231 228 220 219 220 223 213 198 205 204 192
306 304 302 298 296 293 291 289 288 285 283 281 280 279 279 279 277 272 269 268 268 266 264 254 249 250 245 247 247 231 248 238 237 244 244 242 240 234 227 228 234 230 213 206 213 210 208
308 305 302 300 298 296 293 290 288 285 282 280 277 276 275 274 273 269 268 268 267 263 261 259 252 252 247 246 245 237 237 244 239 246 247 239 232 237 239 236 231 219 217 204 215 221 216
311 310 309 307 305 302 298 295 294 291 286 281 276 274 273 272 269 268 265 264 265 260 257 256 257 253 247 245 245 244 242 247 246 245 240 230 188 210 214 214 217 221 216 208 212 229 227
316 313 312 311 309 307 304 301 298 294 291 287 281 276 271 270 269 266 264 262 260 260 255 255 253 248 253 243 242 243 243 244 240 235 238 232 214 219 222 219 212 207 206 210 213 224 233
319 314 312 310 309 306 304 302 300 297 292 289 286 282 278 271 267 265 262 259 259 257 255 251 250 249 243 250 242 244 241 242 239 234 235 226 222 226 228 228 220 213 211 214 213 220 226
318 313 306 304 302 299 299 297 296 293 288 283 282 281 278 275 269 267 264 260 257 255 256 253 246 245 245 246 246 243 244 241 239 235 234 236 232 230 231 225 224 204 212 216 218 224 233
313 313 308 305 303 301 300 297 295 293 289 281 277 274 271 269 264 263 264 262 258 257 253 252 251 246 244 241 242 239 241 237 235 231 228 223 218 222 217 217 210 204 212 217 217 221 235
315 313 310 306 306 303 305 301 297 293 289 287 281 274 269 265 258 257 260 258 257 253 252 250 249 247 243 242 239 235 238 238 236 234 231 226 223 221 221 222 223 218 216 218 224 229 249
315 315 315 314 312 311 309 307 304 299 294 289 283 276 272 266 260 255 256 254 252 252 248 249 248 246 242 239 238 234 232 233 233 232 233 233 232 230 227 227 231 236 232 239 241 250 244
323 323 323 322 321 319 316 314 311 307 301 296 291 284 274 268 262 259 254 251 248 246 248 246 246 246 244 238 236 233 233 232 228 232 231 230 229 225 225 227 232 231 233 238 240 246 249
329 329 330 328 330 333 335 336 335 332 326 317 307 295 282 272 264 258 253 250 246 243 242 242 241 241 241 239 234 232 230 230 230 225 227 227 228 226 223 224 225 223 226 233 237 241 249
335 335 334 337 340 338 341 339 338 337 334 331 322 318 307 287 269 257 254 249 243 238 236 237 237 237 238 237 234 230 230 230 230 227 225 227 225 224 224 226 227 227 228 234 240 239 245
337 337 342 343 343 340 336 339 340 338 337 333 329 328 327 314 294 274 262 251 241 232 230 230 233 234 234 234 232 229 227 229 230 227 226 228 228 225 226 228 229 229 228 231 239 244 250
338 343 345 342 343 345 342 340 342 342 342 336 327 325 324 326 310 298 285 267 247 232 228 225 226 228 229 230 228 227 226 226 228 228 226 226 228 224 226 226 228 230 230 231 230 231 233
342 343 347 350 350 347 346 344 344 343 344 341 335 324 325 325 320 307 300 287 270 239 226 227 225 224 224 224 223 223 223 222 225 227 226 226 228 225 226 230 230 232 235 236 233 236 240
341 343 350 351 350 349 349 348 346 346 346 347 343 335 330 325 318 308 306 304 303 278 236 225 227 228 225 222 220 219 220 219 220 225 227 225 226 227 227 228 230 232 234 239 241 242 243
342 346 351 353 352 350 347 348 348 348 347 351 346 340 334 328 319 305 302 301 307 323 296 242 226 223 229 226 222 217 217 216 218 220 224 227 227 227 228 229 229 230 232 236 240 240 240
339 351 350 350 353 354 350 349 348 349 349 354 354 349 342 334 326 313 303 302 302 305 307 283 235 218 216 226 227 221 216 215 215 217 222 225 227 227 226 228 229 228 229 234 239 243 244
337 346 349 354 353 353 355 351 349 352 352 355 359 357 354 345 337 325 307 296 293 300 297 287 271 238 226 227 227 229 224 216 216 216 220 223 226 228 228 227 228 228 228 230 233 237 240
342 344 349 356 352 351 352 351 353 352 353 356 1 3 2 356 355 346 340 330 318 310 306 283 287 257 236 233 239 233 228 226 218 215 217 221 224 226 228 229 231 227 228 231 232 233 237
344 341 347 357 353 352 350 352 353 351 353 355 358 4 4 2 0 356 342 334 323 318 318 309 285 252 229 226 233 241 243 235 227 222 218 218 222 225 227 229 231 229 231 232 234 234 236
345 339 348 356 350 347 348 346 349 351 349 351 356 357 3 6 2 355 345 333 339 338 326 328 343 248 222 221 228 239 244 242 238 232 225 222 220 225 226 229 231 230 229 232 232 232 233
342 342 347 354 349 347 351 349 349 354 345 346 352 353 356 355 357 2 358 343 335 348 342 345 335 292 229 230 226 226 224 237 239 238 236 229 225 223 226 227 230 230 231 231 235 234 235
341 340 350 356 348 347 351 354 355 349 348 342 348 352 355 354 352 2 6 20 21 35 25 20 18 28 110 174 201 212 219 235 248 245 247 238 235 231 225 226 227 230 231 232 234 235 236